Location: East Guldeford
(50.9500°N, 0.7500°E)
Time: 07:59:11
(UTC+00:00)

Cosmos 2084 - Pass Details

Date: 12 May 2021
Orbit: 542 x 640 km, 62.8° (Epoch: 17 June)

Event Time Altitude Azimuth Distance (km) Brightness Sun altitude
Rises 20:08:46 0° 201° (SSW) 2,707 6.7 -5.1°
Reaches altitude 10° 20:11:03 10° 193° (SSW) 1,828 5.7 -5.4°
Maximum altitude 20:14:52 38° 125° (SE) 869 3.9 -5.8°
Drops below altitude 10° 20:18:48 10° 57° (ENE) 1,887 5.9 -6.3°
Sets 20:21:11 0° 50° (NE) 2,808 6.8 -6.6°
